Regional Weather Roundup
Issued by NWS Sioux Falls, SD

Home | Current Version | Previous Version | Graphics & Text | Print | Product List | Glossary Off
Versions: 1 2 3 4 5 6 7 8 9 10 11 12 13 14 15 16 17 18 19 20 21 22 23 24 25 26 27 28 29 30 31 32 33 34 35 36 37 38 39 40 41 42 43 44 45 46 47 48 49 50

000
ASUS43 KFSD 182010
RWRFSD

WEATHER ROUNDUP FOR SE SOUTH DAKOTA/SW MINNESOTA/NW IOWA
NATIONAL WEATHER SERVICE SIOUX FALLS SD
300 PM CDT FRI APR 18 2014

NOTE: "FAIR" INDICATES FEW OR NO CLOUDS BELOW 12,000 FEET WITH NO
SIGNIFICANT WEATHER AND OR OBSTRUCTIONS TO VISIBILITY.


SDZ038>040-050-052>070-182100-
SOUTHEAST SOUTH DAKOTA

CITY           SKY/WX    TMP DP  RH WIND       PRES   REMARKS
CHAMBERLAIN      N/A     75  36  24 S35G43    29.83F
HURON          SUNNY     70  38  31 S25G39    29.91F
MADISON        FAIR      63  36  36 S31G47    30.03F
MITCHELL       SUNNY     70  40  33 S33G45    29.94F
SIOUX FALLS    PTSUNNY   64  35  34 S26G37    30.07F
WINNER         FAIR      79  33  19 S25G40    29.81F
YANKTON        SUNNY     66  39  37 S22G37    30.03F
$$

MNZ071-072-080-081-089-090-097-098-182100-
SOUTHWEST MINNESOTA

CITY           SKY/WX    TMP DP  RH WIND       PRES   REMARKS
FAIRMONT       SUNNY     55  32  41 SE17G24   30.25F
JACKSON        SUNNY     59  32  36 SE18G29   30.19F
LUVERNE        SUNNY     63  32  31 S26G33    30.11F
MARSHALL       SUNNY     57  37  47 SE26G36   30.13F
MONTEVIDEO     MOSUNNY   48  37  66 SE24G31   30.18F
PIPESTONE      MOSUNNY   59  34  38 S24G32    30.09F
REDWOOD FALLS  MOSUNNY   52  36  54 SE25G31   30.20F
TRACY          SUNNY     57  38  49 SE24      30.16F
WINDOM         SUNNY     57  34  41 SE21G28   30.19F
WORTHINGTON    SUNNY     57  30  35 S22       30.17F
$$

IAZ001>003-012>014-020>022-031-032-NEZ013-014-SDZ071-182100-
NORTHWEST IOWA

CITY           SKY/WX    TMP DP  RH WIND       PRES   REMARKS
CHEROKEE       SUNNY     64  32  30 S21       30.16F
DENISON        SUNNY     64  32  29 S17G25    30.18F
ESTHERVILLE    SUNNY     59  34  39 SE18G29   30.20F
LE MARS        SUNNY     64  34  32 S20G28    30.13F
ORANGE CITY    SUNNY     64  28  25 S15G25    30.12F
SHELDON        SUNNY     64  32  29 SE24G35   30.13F
SIOUX CITY     SUNNY     66  35  31 S21G29    30.14F
SPENCER        SUNNY     62  32  32 SE23G29   30.18F
STORM LAKE     SUNNY     63  32  31 SE22G29   30.19F
$$

ABBREVIATIONS USED IN REMARKS
   TC - TEMPERATURE IN CELSIUS
  WCI - WIND CHILL INDEX
   HX - HEAT INDEX
  VSB - VISIBILITY




USA.gov is the U.S. government's official web portal to all federal, state and local government web resources and services.